Location: Beaurecueil
(43.5122°N, 5.5450°E)
Time: 12:39:58
(UTC+00:00)

Cosmos 1975 Rocket - Pass Details

Date: 18 September 2020
Orbit: 603 x 634 km, 82.5° (Epoch: 30 October)

Event Time Altitude Azimuth Distance (km) Brightness Sun altitude
Rises 19:06:38 0° 345° (NNW) 2,878 7.0 -15.9°
Reaches altitude 10° 19:08:56 10° 340° (NNW) 1,966 6.2 -16.3°
Maximum altitude 19:13:05 47° 267° (W) 810 4.1 -17.0°
Drops below altitude 10° 19:17:12 10° 194° (SSW) 1,943 5.5 -17.7°
Sets 19:19:27 0° 188° (S) 2,841 6.3 -18.1°
